Evans Head Observation History
Time Wind Speed Temp Pressure Rel. Hum Rain
15/10:00pm NNW 9-15 kts 21.0°c 1009.9 hPa 86% 0.0mm
15/09:30pm N 9-12 kts 21.5°c 1009.7 hPa 87% 0.0mm
15/09:00pm N 9-13 kts 21.7°c 1009.4 hPa 87% 0.0mm
15/08:30pm N 9-13 kts 22.0°c 1009.0 hPa 87% 0.0mm
15/08:00pm N 9-14 kts 22.4°c 1008.7 hPa 86% 0.0mm
15/07:30pm N 12-17 kts 22.6°c 1008.4 hPa 85% 0.0mm
15/07:00pm N 13-18 kts 22.8°c 1008.0 hPa 84% 0.0mm
15/06:30pm N 12-20 kts 23.3°c 1007.7 hPa 81% 0.0mm
15/06:00pm N 15-22 kts 23.9°c 1007.3 hPa 79% 0.0mm
15/05:30pm N 13-20 kts 24.6°c 1007.1 hPa 76% 0.0mm
15/05:03pm N 15-25 kts 25.0°c 1007.3 hPa 77% 0.0mm
15/05:00pm N 16-25 kts 25.0°c 1007.2 hPa 76% 0.0mm
15/04:32pm NNE 15-25 kts 24.7°c 1007.5 hPa 77% 0.0mm
15/04:30pm NNE 14-23 kts 24.8°c 1007.5 hPa 76% 0.0mm
15/04:00pm NNE 13-21 kts 26.2°c 1007.8 hPa 71% 0.0mm
15/03:30pm NNE 15-24 kts 26.0°c 1008.1 hPa 68% 0.0mm
15/03:00pm NNE 12-23 kts 26.9°c 1008.5 hPa 65% 0.0mm
15/02:30pm N 14-23 kts 25.9°c 1009.0 hPa 67% 0.0mm
15/02:00pm N 12-21 kts 25.7°c 1009.6 hPa 64% 0.0mm
15/01:30pm N 14-22 kts 27.0°c 1010.2 hPa 56% 0.0mm
15/01:00pm NNE 11-18 kts 27.4°c 1010.7 hPa 58% 0.0mm
15/12:30pm ENE 12-17 kts 25.3°c 1011.3 hPa 64% 0.0mm
15/12:00pm NNE 10-15 kts 26.4°c 1011.8 hPa 56% 0.0mm
15/11:30am ENE 12-17 kts 27.8°c 1012.4 hPa 49% 0.0mm
15/11:00am N 9-14 kts 31.1°c 1012.9 hPa 34% 0.0mm
15/10:30am N 9-13 kts 29.5°c 1013.3 hPa 39% 0.0mm
15/10:00am N 9-12 kts 27.7°c 1013.5 hPa 47% 0.0mm
15/09:30am NNW 6-9 kts 26.0°c 1013.7 hPa 52% 0.0mm
15/09:00am N 5-8 kts 24.5°c 1013.8 hPa 55% 0.0mm
15/08:30am N 5-6 kts 22.7°c 1014.0 hPa 64% 0.0mm
15/08:00am NNW 4-6 kts 20.0°c 1014.1 hPa 76% 0.0mm
15/07:30am NNW 4 kts 18.0°c 1014.1 hPa 88% 0.0mm
15/07:00am NNW 4-5 kts 16.5°c 1013.9 hPa 93% 0.0mm
15/06:30am NW 5-6 kts 15.4°c 1013.7 hPa 93% 0.0mm
15/06:00am NNW 5-6 kts 14.4°c 1013.3 hPa 91% 0.0mm
15/05:30am NNW 6-8 kts 14.2°c 1013.0 hPa 90% 0.0mm
15/05:00am NNW 6-8 kts 14.5°c 1012.8 hPa 90% 0.0mm
15/04:30am NNW 5-7 kts 14.8°c 1012.7 hPa 90% 0.0mm
15/04:00am N 6-8 kts 15.4°c 1012.7 hPa 90% 0.0mm
15/03:30am NNW 5-7 kts 15.7°c 1012.8 hPa 89% 0.0mm
15/03:00am N 7-9 kts 16.5°c 1012.9 hPa 90% 0.0mm
15/02:30am N 6-8 kts 17.0°c 1013.0 hPa 90% 0.0mm
15/02:00am N 7-9 kts 17.3°c 1013.2 hPa 90% 0.0mm
15/01:30am N 7-9 kts 17.9°c 1013.5 hPa 91% 0.0mm
15/01:00am N 7-9 kts 18.2°c 1013.8 hPa 91% 0.0mm
15/12:30am N 7-8 kts 18.6°c 1014.1 hPa 91% 0.0mm
15/12:00am N 7-10 kts 18.7°c 1014.3 hPa 89% 0.0mm
Time Wind Speed Temp Pressure Rel. Hum Rain
14/11:30pm NNE 6-9 kts 18.8°c 1014.5 hPa 88% 0.0mm
14/11:00pm NNE 7-10 kts 19.0°c 1014.5 hPa 87% 0.0mm
14/10:30pm NNE 6-10 kts 19.3°c 1014.6 hPa 85% 0.0mm
14/10:00pm NNE 6-10 kts 19.3°c 1014.6 hPa 85% 0.0mm
14/09:30pm NNE 7-9 kts 19.1°c 1014.4 hPa 84% 0.0mm
14/09:00pm NNE 7-10 kts 19.2°c 1014.0 hPa 83% 0.0mm
14/08:30pm NNE 7-11 kts 19.4°c 1013.8 hPa 81% 0.0mm
14/08:00pm NNE 6-10 kts 19.5°c 1013.7 hPa 78% 0.0mm
14/07:30pm NNE 7-9 kts 19.8°c 1013.4 hPa 76% 0.0mm
14/07:00pm NNE 7-10 kts 20.7°c 1012.9 hPa 72% 0.0mm
14/06:30pm NNE 9-15 kts 21.5°c 1012.3 hPa 67% 0.0mm
14/06:00pm NE 11-17 kts 22.2°c 1011.9 hPa 67% 0.0mm
14/05:30pm NE 12-17 kts 22.6°c 1011.7 hPa 65% 0.0mm
14/05:00pm ENE 12-17 kts 22.9°c 1011.8 hPa 63% 0.0mm
14/04:30pm ENE 12-18 kts 23.1°c 1011.9 hPa 60% 0.0mm
14/04:00pm ENE 12-17 kts 23.6°c 1012.0 hPa 58% 0.0mm
14/03:30pm ENE 10-15 kts 24.4°c 1012.3 hPa 56% 0.0mm
14/03:00pm ENE 10-16 kts 24.0°c 1012.6 hPa 54% 0.0mm
14/02:30pm ENE 12-17 kts 24.1°c 1013.0 hPa 55% 0.0mm
14/02:00pm ENE 11-17 kts 24.6°c 1013.2 hPa 54% 0.0mm
14/01:30pm ENE 12-17 kts 23.7°c 1013.6 hPa 57% 0.0mm
14/01:00pm E 12-16 kts 24.2°c 1014.1 hPa 58% 0.0mm
14/12:30pm E 12-16 kts 24.2°c 1014.3 hPa 54% 0.0mm
14/12:00pm ENE 11-15 kts 24.3°c 1014.7 hPa 56% 0.0mm
14/11:30am ESE 11-13 kts 24.5°c 1015.2 hPa 54% 0.0mm
14/11:00am N 7-12 kts 26.6°c 1015.4 hPa 43% 0.0mm
14/10:30am N 7-11 kts 26.9°c 1015.5 hPa 43% 0.0mm
14/10:00am N 7-13 kts 26.4°c 1015.7 hPa 48% 0.0mm
14/09:30am N 8-13 kts 24.6°c 1015.8 hPa 52% 0.0mm
14/09:00am NNW 6-9 kts 25.1°c 1016.0 hPa 53% 0.0mm
14/08:30am N 6-9 kts 23.2°c 1015.9 hPa 58% 0.0mm
14/08:00am N 4-7 kts 21.4°c 1015.8 hPa 63% 0.0mm
14/07:30am CALM 0 kts 19.1°c 1015.5 hPa 68% 0.0mm
14/07:00am CALM 0 kts 17.5°c 1015.4 hPa 79% 0.0mm
14/06:30am NNW 3-5 kts 16.0°c 1015.0 hPa 86% 0.0mm
14/06:00am NNW 5-6 kts 15.1°c 1014.6 hPa 84% 0.0mm
14/05:30am N 5-7 kts 15.2°c 1014.3 hPa 81% 0.0mm
14/05:00am NNW 4-5 kts 15.9°c 1014.2 hPa 80% 0.0mm
14/04:30am NNW 5 kts 16.0°c 1013.9 hPa 79% 0.0mm
14/04:00am NNW 3-4 kts 16.6°c 1013.9 hPa 79% 0.0mm
14/03:30am NNW 4-5 kts 16.6°c 1013.9 hPa 77% 0.0mm
14/03:00am WNW 4-5 kts 17.0°c 1014.1 hPa 76% 0.0mm
14/02:30am CALM 0 kts 18.0°c 1014.3 hPa 73% 0.0mm
14/02:00am CALM 0 kts 18.2°c 1014.4 hPa 72% 0.0mm
14/01:30am CALM 0 kts 18.3°c 1014.6 hPa 73% 0.0mm
14/01:00am CALM 0 kts 19.0°c 1014.8 hPa 71% 0.0mm
14/12:30am E 3-4 kts 19.3°c 1015.1 hPa 70% 0.0mm
14/12:00am ENE 5-6 kts 19.1°c 1015.0 hPa 70% 0.0mm
Time Wind Speed Temp Pressure Rel. Hum Rain
13/11:30pm NE 5-7 kts 18.8°c 1014.9 hPa 72% 0.0mm
13/11:00pm NE 6-8 kts 18.4°c 1014.9 hPa 74% 0.0mm
13/10:30pm NE 6-8 kts 18.1°c 1014.7 hPa 74% 0.0mm
13/10:00pm NE 5-6 kts 18.1°c 1014.7 hPa 73% 0.0mm
13/09:30pm NE 5-6 kts 18.2°c 1014.5 hPa 72% 0.0mm
13/09:00pm E 5-7 kts 18.7°c 1014.4 hPa 71% 0.0mm
13/08:30pm ESE 6-8 kts 19.0°c 1014.2 hPa 71% 0.0mm
13/08:00pm ESE 7-9 kts 19.0°c 1013.8 hPa 67% 0.0mm
13/07:30pm ESE 8-10 kts 19.3°c 1013.5 hPa 65% 0.0mm
13/07:00pm ESE 8-10 kts 19.8°c 1013.0 hPa 64% 0.0mm
13/06:30pm ESE 9-15 kts 20.4°c 1012.6 hPa 62% 0.0mm
13/06:00pm SE 10-15 kts 21.1°c 1012.1 hPa 61% 0.0mm
13/05:30pm SE 11-14 kts 21.6°c 1012.0 hPa 59% 0.0mm
13/05:00pm SE 11-15 kts 22.1°c 1011.7 hPa 57% 0.0mm
13/04:30pm SE 12-16 kts 22.3°c 1011.6 hPa 55% 0.0mm
13/04:00pm SE 12-16 kts 22.5°c 1011.5 hPa 52% 0.0mm
13/03:30pm SE 13-16 kts 23.3°c 1011.5 hPa 53% 0.0mm
13/03:00pm SE 14-17 kts 23.7°c 1011.6 hPa 53% 0.0mm
13/02:30pm SE 13-19 kts 23.8°c 1011.9 hPa 52% 0.0mm
13/02:00pm SSE 13-17 kts 24.2°c 1012.1 hPa 51% 0.0mm
13/01:30pm SSE 14-19 kts 24.6°c 1012.5 hPa 51% 0.0mm
13/01:00pm SSE 15-19 kts 25.1°c 1012.6 hPa 49% 0.0mm
13/12:30pm SSE 14-19 kts 25.7°c 1012.7 hPa 52% 0.0mm
13/12:00pm SSE 13-19 kts 24.4°c 1012.8 hPa 54% 0.0mm
13/11:30am SSE 15-20 kts 24.5°c 1012.8 hPa 55% 0.0mm
13/11:00am SSE 15-21 kts 24.7°c 1012.8 hPa 57% 0.0mm
13/10:30am SSE 16-22 kts 23.2°c 1012.7 hPa 58% 0.0mm
13/10:00am SSE 16-22 kts 23.7°c 1012.5 hPa 61% 0.0mm
13/09:30am S 17-22 kts 22.4°c 1012.2 hPa 68% 0.0mm
13/09:00am S 17-22 kts 22.7°c 1011.7 hPa 66% 0.0mm
13/08:30am S 16-23 kts 22.0°c 1011.3 hPa 71% 0.0mm
13/08:00am S 15-21 kts 22.1°c 1010.9 hPa 73% 0.0mm
13/07:31am S 16-26 kts 21.2°c 1010.3 hPa 78% 0.0mm
13/07:30am S 17-26 kts 21.1°c 1010.3 hPa 78% 0.0mm
13/07:00am S 16-23 kts 20.2°c 1009.6 hPa 85% 0.0mm
13/06:30am S 16-23 kts 19.7°c 1009.2 hPa 87% 0.0mm
13/06:00am SSW 16-21 kts 19.9°c 1008.7 hPa 83% 0.0mm
13/05:30am S 18-27 kts 20.8°c 1007.9 hPa 73% 0.0mm
13/05:00am SSW 16-27 kts 23.1°c 1007.0 hPa 57% 0.0mm
13/04:59am SSW 15-26 kts 23.5°c 1006.9 hPa 54% 0.0mm
13/04:56am WSW 13-24 kts 23.0°c 1006.7 hPa 57% 0.0mm
13/04:30am NNW 13-21 kts 23.1°c 1004.6 hPa 60% 0.0mm
13/04:00am NNW 13-21 kts 23.0°c 1004.3 hPa 60% 0.0mm
13/03:30am NNW 13-22 kts 22.8°c 1004.2 hPa 62% 0.0mm
13/03:00am NNW 12-19 kts 21.9°c 1004.0 hPa 64% 0.0mm
13/02:30am NNW 11-17 kts 20.9°c 1004.0 hPa 68% 0.0mm
13/02:00am NNW 10-17 kts 20.8°c 1004.2 hPa 69% 0.0mm
13/01:30am NNW 8-13 kts 21.7°c 1004.6 hPa 64% 0.0mm
13/01:00am NNW 7-15 kts 21.9°c 1005.1 hPa 66% 0.0mm
13/12:30am NNW 5-9 kts 21.3°c 1005.7 hPa 71% 0.0mm
13/12:00am NNW 9-12 kts 21.4°c 1005.8 hPa 72% 0.0mm